"Pseudo-MPEC" for A10Ycpr

Created 2023 Nov 22 15:22:02 UT using Find_Orb

Click here for an explanation of pseudo-MPECs

 
 Astrometry: 
     A10Ycpr* C2023 11 17v19u]Z]Q$Astrometry%DaJ8w'5S7ip8+sWs^a_Zredacted;]JtT05
     A10Ycpr  C2023 11 172-.o82t]MxOclickJ%?Wb(.mD(J=@eVN4h\]H1=v/mF4here2$*tT05
     A10Ycpr  C2023 11 17,9A*uforE!;dWof7xT%47,]HIY1pYE\7O0wBQ'qv(2`9\Q44VH%+T05
     A10Ycpr  C2023 11 17M@86x]Mig]g/5n[eQmj)`A=uR@n%(hD@%v$,eEiR.X!ixR7$B@d8T05
     A10Ycpr  C2023 11 179pX:]B-[fW@rw?;)NN*=L6T*3OnQgb!ys6xr:explanationF)5rT05

Station data:
(T05) ATLAS-HKO, Haleakala  (N20.707571 W156.257010)  US/Hawaii.  Observers
   L. Denneau, A. Heinze, H. Weiland, J. Tonry, H. Flewelling, A.
   Fitzsimmons, D. Young, B. Stalder. Measurers L. Denneau, A. Heinze, J.
   Tonry. 0.5-m f/2.0 Schmidt + CCD.

Orbital elements:  A10Ycpr
   Perigee 2023 Nov 18.15085 TT =  3:37:13 (JD 2460266.65085)    AutoNEOCP
Epoch 2023 Nov 18.0 TT = JDT 2460266.5
M 322.31261190                      (J2000 equator)
n 249.82664292     Peri.  211.88815
a 53890.3500km     Node    18.60602
e   0.8633405      Incl.   62.32745
P2075.00m/1.441d   H   32.92    G   0.15   q 7364.62313km  Q 100416.077km
4 of 5 observations 2023 Nov. 17 (2.6 min); mean residual 1".62
Residuals in arcseconds: 
231117 T05  .88-  2.4-    231117 T05( .35-  4.1+)   231117 T05  .24-  1.7-    
231117 T05  1.3+  2.9+    231117 T05  .17-  1.1+    

Ephemerides (geocentric):
Date (UTC) HH   RA             Dec           delta  r     elong  mag
---- --------  ------------   ------------  ------ ------ -----  ---
2023 11 22 15  01 13 54.270   +00 16 27.63   51805 .98796 137.0 17.3
2023 11 22 16  01 23 01.258   +04 36 13.78   59942 .98801 141.0 17.5
2023 11 22 17  01 30 09.160   +07 57 08.45   66961 .98805 144.0 17.6
2023 11 22 18  01 36 05.570   +10 41 44.84   73058 .98809 146.3 17.7
2023 11 22 19  01 41 15.295   +13 02 06.92   78366 .98812 148.2 17.8
2023 11 22 20  01 45 52.898   +15 05 24.68   82977 .98814 149.8 17.9
2023 11 22 21  01 50 07.703   +16 56 13.84   86962 .98817 151.2 18.0
2023 11 22 22  01 54 06.104   +18 37 42.02   90369 .98818 152.4 18.0
2023 11 22 23  01 57 52.756   +20 12 03.31   93240 .98820 153.4 18.1
2023 11 23 00  02 01 31.231   +21 40 57.76   95603 .98821 154.3 18.1
2023 11 23 01  02 05 04.424   +23 05 43.00   97482 .98821 155.1 18.1
2023 11 23 02  02 08 34.807   +24 27 21.57   98893 .98822 155.7 18.1
2023 11 23 03  02 12 04.606   +25 46 45.86   99848 .98822 156.3 18.1
2023 11 23 04  02 15 35.944   +27 04 41.55  100357 .98821 156.8 18.1
2023 11 23 05  02 19 10.954   +28 21 50.13  100422 .98821 157.3 18.1
2023 11 23 06  02 22 51.897   +29 38 51.03  100045 .98820 157.6 18.1
2023 11 23 07  02 26 41.283   +30 56 23.45   99222 .98819 157.9 18.1
2023 11 23 08  02 30 42.031   +32 15 08.17   97947 .98817 158.0 18.0
2023 11 23 09  02 34 57.669   +33 35 49.57   96207 .98815 158.1 18.0
2023 11 23 10  02 39 32.627   +34 59 18.03   93989 .98813 158.1 17.9
2023 11 23 11  02 44 32.678   +36 26 33.17   91271 .98810 157.9 17.9
2023 11 23 12  02 50 05.621   +37 58 48.22   88025 .98808 157.6 17.8
2023 11 23 13  02 56 22.428   +39 37 36.67   84214 .98804 157.1 17.7
2023 11 23 14  03 03 39.245   +41 25 02.34   79793 .98800 156.3 17.6
2023 11 23 15  03 12 21.135   +43 23 55.69   74697 .98796 155.3 17.5
2023 11 23 16  03 23 09.693   +45 38 21.05   68842 .98791 153.9 17.4
2023 11 23 17  03 37 20.205   +48 14 23.19   62109 .98786 151.9 17.2
2023 11 23 18  03 57 26.127   +51 21 23.45   54323 .98779 149.0 17.0
2023 11 23 19  04 29 38.981   +55 13 07.29   45212 .98772 144.5 16.8
2023 11 23 20  05 33 24.499   +59 55 52.44   34304 .98763 136.7 16.4
2023 11 23 21  08 26 57.455   +61 03 15.85   20683 .98752 118.4 15.8
2023 11 23 22  15 03 05.270   -41 17 44.20    7467 .98740  23.7 21??
2023 11 23 23  00 10 26.682   -27 13 29.94   22452 .98749 107.6 16.3
2023 11 24 00  00 49 38.735   -11 01 06.58   35690 .98757 124.5 16.8
2023 11 24 01  01 06 53.453   -02 57 29.37   46355 .98763 132.4 17.1
2023 11 24 02  01 17 53.113   +02 16 28.86   55293 .98769 137.4 17.4
2023 11 24 03  01 26 02.141   +06 07 54.50   62946 .98773 140.9 17.6
2023 11 24 04  01 32 36.014   +09 11 40.99   69570 .98777 143.5 17.7
2023 11 24 05  01 38 10.464   +11 44 58.72   75332 .98781 145.7 17.8
2023 11 24 06  01 43 05.151   +13 57 25.50   80347 .98784 147.4 17.9
2023 11 24 07  01 47 32.068   +15 54 56.32   84696 .98786 148.9 18.0
2023 11 24 08  01 51 39.128   +17 41 24.76   88441 .98788 150.2 18.0
2023 11 24 09  01 55 31.893   +19 19 33.12   91626 .98790 151.4 18.1
2023 11 24 10  01 59 14.504   +20 51 19.55   94287 .98791 152.3 18.1
2023 11 24 11  02 02 50.211   +22 18 13.60   96451 .98792 153.2 18.2
2023 11 24 12  02 06 21.704   +23 41 25.85   98139 .98792 154.0 18.2
2023 11 24 13  02 09 51.330   +25 01 54.06   99364 .98793 154.7 18.2
2023 11 24 14  02 13 21.252   +26 20 27.38  100138 .98793 155.3 18.2